Showing default

LT-1 O1A, 51284

Orbit data source: Space-Track

LT-1 O1A, 51284 is a payload satellite owned by SAST (CN) in SSO that was launched on Tue, 25 Jan 2022 UTC via a CHANG ZHENG 4C launch vehicle from the Jiuquan Satellite Launch Center, China (JSC). Payload-class satellites include a variety of spacecraft equipped with specific instruments for various scientific and technological missions. These include communications satellites like Starlink; space stations such as the ISS; scientific satellites like the Hubble; Earth observation satellites from companies like Planet Labs, Umbra, and HawkEye 360; GPS; miniature CubeSats for education and research; and military/defense satellites.

Loading next visibility...
Identifier
51284, 2022-007A
Orbit
SSO
Last TLE update
8 hours ago
Origin
Manufacturer
SAST
Mission
Operational Civil Radar Imaging
Bus & Motor
LSAR, AOCS 20N
Mass
3,200 kg wet, ~2,500 kg dry
Launch date (UTC)
2022-01-25 (3 years ago)
Launch vehicle
CHANG ZHENG 4C
Launch site
Jiuquan Satellite Launch Center, China (JSC)
Object type
Payload
Rocket body
Debris
Shape & HBR
Box + 4 Pan, 10 m
Radar Cross Section
14.608 m², Large (>1 m²)

Expand to show TLE details & history

TLE from 8 hours ago
0 LT-1 O1A
1 51284U 22007A   25182.59288147  .00000495  00000-0  59271-4 0  9999
2 51284  97.8102 190.0372 0001607  91.3691 268.7710 14.88419498186321
Epoch: 2025-07-01T14:13Z
TLE epoch observation values (Epoch: 2025-07-01T14:13:44.959Z)
Latitude
0.00002°
Longitude
56.71375°
Altitude
605.933 km
Speed
7.556 km/s
True Right ascension
12h 40m 08s
True Declination
0° 00' 00"
Sunlit
Object was in daylight at epoch
Visualization orbit readout
Latitude
-33.27615°
Longitude
62.17538°
Altitude
616.08 km
Speed
7.549 km/s
Apparent Right ascension
16h 40m 42s
Apparent Declination
-60° 25' 31"
Sunlit
Object is in daylight
Visualization observer readout
Local Sidereal Time
09:49:08
Azimuth
141.107° SSE
Elevation
-39.978°
Doppler factor
1
Orbital elements
Apogee altitude
601.02 km
Perigee altitude
598.777 km
Semi-major axis
6,978.036 km
Eccentricity
0.00016
Inclination
97.8102°
RAAN
190.0372°
Arg. of periapsis
91.3691°
True anomaly
Unknown
Mean anomaly
268.771°
Eccentric anomaly
Unknown
Mean motion
3.72343 °/min
Orbital period
96.69 mins
BSTAR
0.000059271
Loading maneuver chart data...
Loading SW <> Apogee altitude chart data...
Loading historical data...
Loading historical data...
Loading historical data...
Loading historical data...
Loading historical data...
Loading historical data...
Loading historical data...
Other satellites on launch #7 in the year 2022 (2022-01-25 UTC)

LT-1 O1A Visibility forecast

Observer location: undefined°, undefined°

Span
Click to sort rows by Start time (UTC) header in descending order
Start Az.
Max El. time (UTC)
Max El. Az.
Max El.
End time (UTC)
End Az.
6 mins2025-07-02 00:02:46.650Z136.718° SSE2025-07-02 00:05:46.650Z73.37° E33.203°2025-07-02 00:08:46.650Z8.292° NNE
6 mins2025-07-02 13:23:46.650Z13.308° NNE2025-07-02 13:26:46.650Z182.517° SSW44.585°2025-07-02 13:29:46.650Z192.703° SSW
|